Location: Unspecified
(40.7945°N, 111.1337°W)
Time: 17:01:20
(UTC-06:00)

Altair - Visible Passes

Search period start: 25 June 2019 00:00
Search period end: 05 July 2019 00:00
Orbit: 1501 x 1683 km, 47.2° (Epoch: 25 June)

Date Brightness Start Highest point End Pass type
(mag) Time Alt. Az. Time Alt. Az. Time Alt. Az.
25 Jun 7.5 01:45:10 10° WNW 01:55:07 89° SSW 02:05:18 10° ESE visible
25 Jun 8.0 03:50:32 10° WNW 03:59:15 36° SW 04:08:06 10° SSE visible
25 Jun 8.1 23:14:42 10° WNW 23:24:15 60° N 23:34:10 10° E visible
26 Jun 7.5 01:19:58 10° WNW 01:29:53 87° NNE 01:40:04 10° ESE visible
26 Jun 7.9 03:25:13 10° WNW 03:34:09 39° SW 03:43:13 10° SSE visible
26 Jun 8.1 22:49:27 10° WNW 22:58:58 60° N 23:08:50 10° E visible
27 Jun 7.6 00:54:47 10° WNW 01:04:40 84° NNE 01:14:50 10° ESE visible
27 Jun 7.9 02:59:56 10° WNW 03:09:02 42° SW 03:16:11 17° SSE visible
27 Jun 8.1 22:24:13 10° W 22:33:41 60° N 22:43:31 10° E visible
28 Jun 7.6 00:29:35 10° WNW 00:39:26 81° NNE 00:49:35 10° ESE visible
28 Jun 7.8 02:34:41 10° WNW 02:43:55 45° SW 02:47:50 33° S visible
28 Jun 8.1 21:58:59 10° W 22:08:24 60° N 22:18:13 10° ENE visible
29 Jun 7.7 00:04:24 10° WNW 00:14:11 78° NNE 00:24:00 11° ESE visible
29 Jun 7.7 02:09:26 10° WNW 02:18:47 49° SW 02:21:52 39° S visible
29 Jun 9.1 04:18:35 10° WSW 04:19:44 11° WSW 04:19:44 11° WSW visible
29 Jun 8.1 21:33:44 10° W 21:43:08 60° N 21:52:55 10° ENE visible
29 Jun 7.7 23:39:12 10° WNW 23:48:57 75° NNE 23:58:38 11° ESE visible
30 Jun 7.7 01:44:12 10° WNW 01:53:39 53° SW 01:56:32 42° S visible
30 Jun 9.0 03:52:21 10° W 03:54:26 13° WSW 03:54:26 13° WSW visible
30 Jun 7.8 23:14:01 10° WNW 23:23:42 72° NNE 23:33:36 10° ESE visible
01 Jul 7.6 01:18:59 10° WNW 01:28:30 57° SW 01:31:32 43° S visible
01 Jul 9.0 03:26:27 10° W 03:29:27 15° WSW 03:29:27 15° WSW visible
01 Jul 7.8 22:48:49 10° WNW 22:58:27 70° NNE 23:08:26 10° E visible
02 Jul 7.6 00:53:46 10° WNW 01:03:21 61° SW 01:06:44 43° SSE visible
02 Jul 8.9 03:00:44 10° W 03:04:41 17° WSW 03:04:41 17° WSW visible
02 Jul 7.9 22:23:38 10° WNW 22:33:12 68° NNE 22:43:08 10° E visible
03 Jul 7.6 00:28:35 10° WNW 00:38:11 65° SW 00:42:06 40° SSE visible
03 Jul 8.8 02:35:08 10° W 02:40:02 19° WSW 02:40:02 19° WSW visible
03 Jul 7.9 21:58:26 10° WNW 22:07:56 66° NNE 22:17:50 10° E visible
04 Jul 7.5 00:03:23 10° WNW 00:13:01 69° SW 00:17:34 37° SE visible
04 Jul 8.7 02:09:36 10° W 02:15:32 22° WSW 02:15:32 22° WSW visible
04 Jul 8.0 21:33:14 10° WNW 21:42:41 64° NNE 21:52:31 10° E visible
04 Jul 7.5 23:38:12 10° WNW 23:47:51 73° SW 23:53:08 32° SE visible
